Notices

What's New in latest Release from April 7th, 2021:

- Updated Glossary, including Speed of Maximum Gust, and Total Hourly Precipitation

- Updated national and regional climate services offices contacts and prices information

- Addition of station inventory lists for 1981-2010, 1971-2000, and 1961-1990 Normals.

If you haven't already, please take our survey and provide feedback about our website: https://eccc.sondage-survey.ca/f/LanguageSelection.aspx?s=442ca660-fcf1-47c0-95a9-59707d6fd709

Hourly Data Report for January 24, 2004

TORONTO CITY
ONTARIO

43°40'00.000" N
79°24'00.000" W
112.50 m
6158355
71508
XTO

Download Data

Hourly Data (January 2004)
Hourly Data Report for January 24, 2004
TIME
LST
Temp Definition
°C
Dew Point Definition
°C
Rel Hum Definition
%
Precip. Amount Definition
mm

Wind Dir Definition
10's deg

Wind Spd Definition
km/h
Visibility Definition
km
Stn Press Definition
kPa
Hmdx Definition


Wind Chill Definition


Weather Definition


00:00 -12.2 -14.4 84   LegendMM LegendMM LegendMM 99.83     LegendNANA
01:00 -11.9 -15.3 76   LegendMM LegendMM LegendMM 99.78     LegendNANA
02:00 -11.9 -15.3 76   LegendMM LegendMM LegendMM 99.75     LegendNANA
03:00 -12.2 -16.5 70   LegendMM LegendMM LegendMM 99.76     LegendNANA
04:00 -14.3 -17.8 75   LegendMM LegendMM LegendMM 99.79     LegendNANA
05:00 -15.5 -20.1 68   LegendMM LegendMM LegendMM 99.85     LegendNANA
06:00 -16.4 -22.9 57   LegendMM LegendMM LegendMM 99.91     LegendNANA
07:00 -17.0 -23.3 58   LegendMM LegendMM LegendMM 100.01     LegendNANA
08:00 -17.8 -23.7 60   LegendMM LegendMM LegendMM 100.13     LegendNANA
09:00 -17.3 -23.7 57   LegendMM LegendMM LegendMM 100.20     LegendNANA
10:00 -17.0 -23.6 57   LegendMM LegendMM LegendMM 100.31     LegendNANA
11:00 -16.4 -23.0 57   LegendMM LegendMM LegendMM 100.39     LegendNANA
12:00 -17.1 -23.5 58   LegendMM LegendMM LegendMM 100.48     LegendNANA
13:00 -16.3 -24.0 51   LegendMM LegendMM LegendMM 100.51     LegendNANA
14:00 -16.2 -23.7 52   LegendMM LegendMM LegendMM 100.53     LegendNANA
15:00 -15.7 -22.8 54   LegendMM LegendMM LegendMM 100.59     LegendNANA
16:00 -15.0 -22.2 54   LegendMM LegendMM LegendMM 100.63     LegendNANA
17:00 -14.7 -21.9 54   LegendMM LegendMM LegendMM 100.65     LegendNANA
18:00 -15.4 -21.4 60   LegendMM LegendMM LegendMM 100.73     LegendNANA
19:00 -16.0 -21.0 65   LegendMM LegendMM LegendMM 100.80     LegendNANA
20:00 -16.1 -20.9 66   LegendMM LegendMM LegendMM 100.88     LegendNANA
21:00 -16.8 -20.9 70   LegendMM LegendMM LegendMM 101.00     LegendNANA
22:00 -17.2 -21.8 67   LegendMM LegendMM LegendMM 101.08     LegendNANA
23:00 LegendMM LegendMM LegendMM   LegendMM LegendMM LegendMM LegendMM     LegendNANA

Notes on Data Quality.

Legend

  • E = Estimated
  • M = Missing
  • NA = Not Available*
  • [empty] = Indicates an unobserved value
Date modified: